FW6636 Weather Reports


time (UTC)temp
F
wind
direction
speed
knots
gust
knots
rain 1hr
in
rain 24hr
in
rain mn
in
humidity
%
barometer
mb
20260506222053 63 245 1.7 6.1 0.00 0.44 0.44 87 1007.5
20260506221558 63 198 2.6 7.8 0.00 0.44 0.44 87 1007.5
20260506221052 63 265 1.7 7.8 0.00 0.44 0.44 87 1007.4
20260506220552 63 246 2.6 7.0 0.00 0.44 0.44 86 1007.3
20260506220057 63 254 3.5 7.0 0.00 0.44 0.44 87 1007.3
20260506215556 63 296 2.6 8.7 0.00 0.44 0.44 87 1007.3
20260506215053 63 252 3.5 9.6 0.00 0.44 0.44 87 1007.3
20260506214554 63 217 4.3 10.4 0.00 0.44 0.44 87 1007.2
20260506214052 63 233 3.5 10.4 0.00 0.44 0.44 87 1007.2
20260506213552 63 292 2.6 10.4 0.00 0.44 0.44 87 1007.1
20260506213054 63 215 2.6 9.6 0.00 0.44 0.44 88 1007.1
20260506212555 63 206 3.5 9.6 0.00 0.44 0.44 88 1007.0
20260506212052 62 234 3.5 9.6 0.00 0.44 0.44 88 1007.1
20260506211554 62 217 4.3 7.8 0.00 0.44 0.44 88 1007.0
20260506211053 62 186 1.7 7.8 0.00 0.44 0.44 88 1006.9
20260506210552 62 227 1.7 7.8 0.00 0.44 0.44 89 1006.9
20260506210055 62 263 2.6 7.0 0.00 0.44 0.44 89 1006.9
20260506205553 62 202 3.5 8.7 0.00 0.44 0.44 89 1007.0
20260506205052 62 292 4.3 8.7 0.00 0.44 0.44 89 1006.9
20260506204555 61 213 2.6 7.8 0.00 0.44 0.44 90 1007.0
20260506204053 61 218 3.5 8.7 0.00 0.44 0.44 90 1006.9
20260506203552 61 217 3.5 8.7 0.00 0.44 0.44 90 1006.8
20260506203059 61 221 2.6 7.8 0.00 0.44 0.44 90 1006.9
20260506202552 61 229 3.5 8.7 0.00 0.44 0.44 90 1006.8
20260506202052 61 252 2.6 8.7 0.00 0.44 0.44 90 1006.9
20260506201610 61 261 2.6 6.1 0.00 0.44 0.44 90 1006.9
20260506201053 61 277 2.6 7.0 0.00 0.44 0.44 91 1006.8
20260506200550 61 252 3.5 7.0 0.00 0.44 0.44 91 1006.9
20260506200054 61 279 1.7 7.8 0.00 0.44 0.44 91 1006.9
20260506195552 61 275 1.7 7.8 0.00 0.44 0.44 91 1006.9
20260506195054 61 224 1.7 7.0 0.00 0.44 0.44 91 1007.0
20260506194556 61 252 2.6 7.0 0.00 0.44 0.44 91 1006.9
20260506194048 61 0 0.9 6.1 0.00 0.44 0.44 91 1006.9
20260506193550 61 235 2.6 7.0 0.00 0.44 0.44 91 1007.1
20260506193058 61 199 3.5 7.0 0.00 0.44 0.44 91 1007.0
20260506192552 61 225 2.6 7.8 0.00 0.44 0.44 91 1007.1
20260506192052 61 196 2.6 9.6 0.01 0.44 0.44 91 1007.2
20260506191559 61 250 2.6 9.6 0.01 0.44 0.44 91 1007.2
20260506191053 61 203 5.2 9.6 0.01 0.44 0.44 91 1007.3
20260506190555 61 192 4.3 11.3 0.02 0.44 0.44 91 1007.2
20260506190054 61 187 6.1 12.2 0.03 0.44 0.44 91 1007.2
20260506185552 61 182 5.2 14.8 0.03 0.44 0.44 92 1007.4
20260506185052 60 195 6.1 14.8 0.04 0.44 0.44 91 1007.3
20260506184601 60 235 3.5 10.4 0.05 0.44 0.44 92 1007.4
20260506184052 60 217 3.5 7.8 0.06 0.44 0.44 92 1007.5
20260506183555 60 236 3.5 8.7 0.07 0.44 0.44 92 1007.5
20260506183050 60 182 3.5 8.7 0.08 0.44 0.44 92 1007.6
20260506182556 60 193 3.5 8.7 0.09 0.44 0.44 92 1007.6
20260506182053 60 184 2.6 8.7 0.09 0.43 0.43 91 1007.6
20260506181555 60 181 2.6 7.0 0.09 0.43 0.43 92 1007.6
20260506181053 60 227 3.5 7.8 0.10 0.43 0.43 92 1007.6
20260506180552 60 168 4.3 7.8 0.09 0.42 0.42 91 1007.7
20260506180056 60 236 4.3 10.4 0.09 0.41 0.41 91 1007.8
20260506175553 60 204 5.2 11.3 0.10 0.41 0.41 91 1007.6
20260506175054 60 201 6.1 11.3 0.10 0.40 0.40 91 1007.6
20260506174554 60 177 5.2 9.6 0.10 0.39 0.39 91 1007.8
20260506174049 60 196 3.5 8.7 0.11 0.38 0.38 91 1007.8
20260506173554 60 181 4.3 8.7 0.12 0.37 0.37 91 1007.7
20260506173113 60 193 1.7 8.7 0.11 0.36 0.36 91 1007.8
20260506172552 60 219 3.5 7.8 0.10 0.35 0.35 91 1007.9
20260506172052 60 183 3.5 10.4 0.09 0.34 0.34 91 1007.9
20260506171557 60 176 4.3 11.3 0.09 0.34 0.34 91 1007.9
20260506171052 60 221 6.1 11.3 0.09 0.33 0.33 91 1007.9
20260506170551 60 204 5.2 10.4 0.09 0.33 0.33 91 1007.9
20260506170057 60 195 5.2 12.2 0.08 0.32 0.32 91 1007.9
20260506165553 60 175 5.2 13.9 0.07 0.31 0.31 91 1008.0
20260506165049 60 202 6.1 13.9 0.06 0.30 0.30 90 1007.9
20260506164555 60 205 6.1 11.3 0.06 0.29 0.29 90 1007.9
20260506164051 60 190 5.2 13.0 0.05 0.27 0.27 90 1007.9
20260506163548 60 198 5.2 13.0 0.04 0.25 0.25 90 1007.9
20260506163103 60 187 7.0 13.9 0.05 0.25 0.25 90 1008.0
20260506162552 60 177 6.1 14.8 0.06 0.25 0.25 90 1008.0
20260506162049 59 216 8.7 14.8 0.08 0.25 0.25 90 1008.0
20260506161600 60 181 7.0 14.8 0.09 0.25 0.25 90 1008.0
20260506161048 60 177 6.1 12.2 0.09 0.24 0.24 90 1008.1
20260506160552 60 196 6.1 12.2 0.09 0.24 0.24 90 1008.0
20260506160057 60 209 6.1 15.6 0.10 0.24 0.24 90 1008.1
20260506155552 60 188 8.7 15.6 0.10 0.24 0.24 90 1008.0
20260506155049 60 179 6.1 15.6 0.11 0.24 0.24 90 1008.1
20260506154600 60 178 7.8 15.6 0.11 0.23 0.23 90 1008.1
20260506154052 60 189 6.1 11.3 0.11 0.22 0.22 90 1008.3
20260506153551 60 188 6.1 13.9 0.10 0.21 0.21 90 1008.1
20260506153056 59 175 6.1 13.9 0.10 0.20 0.20 89 1008.2
20260506152553 60 161 6.1 12.2 0.09 0.19 0.19 89 1008.5
20260506152054 60 187 7.0 13.0 0.08 0.17 0.17 89 1008.7
20260506151555 60 221 5.2 13.0 0.08 0.16 0.16 89 1008.8
20260506151051 60 185 6.1 12.2 0.08 0.15 0.15 89 1008.9
20260506150549 60 169 5.2 12.2 0.08 0.15 0.15 89 1008.7
20260506150057 60 181 6.1 12.2 0.08 0.14 0.14 89 1008.6
20260506145556 60 156 6.1 11.3 0.08 0.14 0.14 89 1008.6
20260506145052 60 189 4.3 9.6 0.08 0.13 0.13 89 1008.6
20260506144559 60 187 4.3 9.6 0.07 0.12 0.12 89 1008.4
20260506144054 60 146 5.2 11.3 0.06 0.11 0.11 89 1008.5
20260506143552 60 179 4.3 11.3 0.07 0.11 0.11 89 1008.5
20260506143056 60 174 2.6 6.1 0.06 0.10 0.10 89 1008.5
20260506142553 60 198 2.6 8.7 0.07 0.10 0.10 89 1008.5
20260506142052 60 182 2.6 10.4 0.07 0.09 0.09 89 1008.7
20260506141600 60 183 5.2 12.2 0.06 0.08 0.08 88 1008.7
20260506141052 60 188 5.2 12.2 0.06 0.07 0.07 88 1009.0
20260506140552 60 190 5.2 10.4 0.06 0.07 0.07 88 1009.0
20260506135548 60 179 4.3 9.6 0.05 0.06 0.06 88 1008.9
20260506135051 60 154 5.2 11.3 0.05 0.05 0.05 88 1008.8
20260506134557 60 181 4.3 12.2 0.05 0.05 0.05 87 1008.9
20260506134052 60 184 5.2 13.0 0.05 0.05 0.05 87 1008.8
20260506133552 60 218 7.0 13.0 0.04 0.04 0.04 87 1009.0
20260506133101 60 187 6.1 10.4 0.04 0.04 0.04 86 1009.1
20260506132549 60 198 6.1 9.6 0.03 0.03 0.03 86 1009.1
20260506132054 60 183 5.2 10.4 0.02 0.02 0.02 85 1009.2
20260506131553 60 221 5.2 11.3 0.02 0.02 0.02 84 1009.0
20260506131052 61 198 6.1 12.2 0.01 0.01 0.01 84 1009.0
20260506130549 61 217 5.2 13.0 0.01 0.01 0.01 84 1009.2
20260506130054 61 184 6.1 13.0 0.01 0.01 0.01 83 1009.2
20260506125557 61 197 7.0 13.0 0.01 0.01 0.01 83 1009.3
20260506125052 61 187 6.1 20.9 0.00 0.00 0.00 82 1009.2
20260506124600 61 172 7.8 20.9 0.00 0.00 0.00 81 1009.2
20260506124053 62 173 4.3 14.8 0.00 0.00 0.00 81 1009.2
20260506123549 62 195 6.1 14.8 0.00 0.00 0.00 80 1009.0
20260506123051 62 156 5.2 13.0 0.00 0.00 0.00 79 1008.9
20260506122552 62 202 6.1 13.0 0.00 0.00 0.00 78 1009.1
20260506122052 62 202 6.1 12.2 0.00 0.00 0.00 77 1009.1
20260506121600 62 193 6.1 12.2 0.00 0.00 0.00 77 1008.9
20260506121052 62 151 6.1 12.2 0.00 0.00 0.00 78 1008.9
20260506120552 62 183 5.2 12.2 0.00 0.00 0.00 78 1008.8
20260506120108 62 245 5.2 11.3 0.00 0.00 0.00 79 1008.8
20260506115549 62 197 2.6 6.1 0.00 0.00 0.00 79 1008.8
20260506115048 62 203 1.7 8.7 0.00 0.00 0.00 81 1008.9
20260506114610 62 183 3.5 8.7 0.00 0.00 0.00 78 1008.9
20260506114048 62 199 0.9 8.7 0.00 0.00 0.00 77 1008.9
20260506113548 63 192 3.5 13.9 0.00 0.00 0.00 76 1008.8
20260506113054 63 200 3.5 13.9 0.00 0.00 0.00 75 1008.9
20260506112548 63 200 3.5 8.7 0.00 0.00 0.00 74 1008.9
20260506112052 63 197 4.3 9.6 0.00 0.00 0.00 73 1009.0
20260506111555 63 199 5.2 9.6 0.00 0.00 0.00 73 1009.0
20260506111052 63 183 4.3 11.3 0.00 0.00 0.00 72 1008.9
20260506110553 63 197 4.3 13.0 0.00 0.00 0.00 72 1008.8
20260506110051 63 179 4.3 13.0 0.00 0.00 0.00 71 1008.7
20260506105551 63 224 1.7 6.1 0.00 0.00 0.00 71 1008.8
20260506105052 63 198 0.0 4.3 0.00 0.00 0.00 70 1008.6
20260506104555 63 0 0.0 4.3 0.00 0.00 0.00 70 1008.6
20260506104052 63 210 1.7 5.2 0.00 0.00 0.00 70 1008.5
20260506103549 63 0 0.9 6.1 0.00 0.00 0.00 70 1008.3
20260506103052 63 217 1.7 6.1 0.00 0.00 0.00 70 1008.4
20260506102552 63 240 2.6 5.2 0.00 0.00 0.00 70 1008.4
20260506102052 63 210 1.7 5.2 0.00 0.00 0.00 70 1008.4
20260506101550 63 199 2.6 5.2 0.00 0.00 0.00 69 1008.3
20260506101048 63 197 2.6 5.2 0.00 0.00 0.00 69 1008.2
20260506100549 63 192 1.7 6.1 0.00 0.00 0.00 68 1008.3
20260506100054 63 187 1.7 6.1 0.00 0.00 0.00 68 1008.2
20260506095552 63 191 2.6 6.1 0.00 0.00 0.00 67 1008.2
20260506095052 63 200 0.9 4.3 0.00 0.00 0.00 67 1008.3
20260506094556 63 0 0.9 3.5 0.00 0.00 0.00 67 1008.4
20260506094052 63 244 0.9 4.3 0.00 0.00 0.00 67 1008.5
20260506093552 63 175 0.0 4.3 0.00 0.00 0.00 67 1008.4
20260506093108 63 202 0.9 3.5 0.00 0.00 0.00 67 1008.3
20260506092552 62 0 0.0 0.0 0.00 0.00 0.00 67 1008.3
20260506092052 63 0 0.0 3.5 0.00 0.00 0.00 67 1008.5
20260506091551 63 0 0.0 3.5 0.00 0.00 0.00 67 1008.5
20260506091052 63 179 0.0 5.2 0.00 0.00 0.00 65 1008.5
20260506090549 64 207 0.9 8.7 0.00 0.00 0.00 64 1008.5
20260506085552 64 217 2.6 7.0 0.00 0.10 0.00 63 1008.4
20260506085049 64 215 1.7 5.2 0.00 0.10 0.00 63 1008.5
20260506084556 64 252 1.7 4.3 0.00 0.10 0.00 62 1008.4
20260506084052 64 195 0.9 4.3 0.00 0.10 0.00 62 1008.5
20260506083552 64 270 1.7 4.3 0.00 0.10 0.00 62 1008.5
20260506083058 64 265 1.7 5.2 0.00 0.10 0.00 62 1008.6
20260506082556 64 231 1.7 5.2 0.00 0.10 0.00 62 1008.6
20260506082052 64 254 2.6 5.2 0.00 0.10 0.00 61 1008.6
20260506081557 64 240 0.9 4.3 0.00 0.10 0.00 62 1008.6
20260506081052 65 205 1.7 5.2 0.00 0.10 0.00 61 1008.5
20260506080552 65 181 2.6 7.8 0.00 0.10 0.00 61 1008.5
20260506080110 65 245 3.5 7.8 0.00 0.10 0.00 60 1008.5
20260506073111 65 220 3.5 8.7 0.00 0.10 0.00 59 1008.7
20260506072551 65 193 3.5 12.2 0.00 0.10 0.00 59 1008.8
20260506072054 65 204 6.1 12.2 0.00 0.10 0.00 58 1008.7
20260506071557 65 203 5.2 11.3 0.00 0.10 0.00 58 1008.8
20260506071048 65 175 5.2 9.6 0.00 0.10 0.00 58 1008.8
20260506070551 65 194 5.2 10.4 0.00 0.10 0.00 57 1008.9
20260506062052 66 204 2.6 9.6 0.00 0.10 0.00 55 1009.2
20260506061604 66 210 3.5 9.6 0.00 0.10 0.00 54 1009.2
20260506061052 66 242 3.5 9.6 0.00 0.10 0.00 54 1009.2
20260506060550 66 192 2.6 9.6 0.00 0.10 0.00 54 1009.3
20260506051049 67 219 5.2 8.7 0.00 0.10 0.00 52 1009.7
20260506050549 67 244 5.2 10.4 0.00 0.10 0.00 51 1009.7
20260506045049 67 194 3.5 8.7 0.00 0.10 0.00 51 1009.8
20260506044611 67 200 4.3 9.6 0.00 0.10 0.00 51 1009.8
20260506044051 67 223 5.2 10.4 0.00 0.10 0.00 51 1009.7
20260506043553 67 186 5.2 10.4 0.00 0.10 0.00 51 1009.8
20260506043056 67 224 4.3 10.4 0.00 0.10 0.00 51 1009.8
20260506042552 67 182 3.5 8.7 0.00 0.10 0.00 51 1009.8
20260506042052 67 205 4.3 8.7 0.00 0.10 0.00 51 1009.7
20260506041608 67 185 4.3 8.7 0.00 0.10 0.00 51 1009.7
20260506041050 67 238 3.5 7.8 0.00 0.10 0.00 51 1009.8
20260506040548 67 185 3.5 7.8 0.00 0.10 0.00 51 1009.9
20260506040056 67 256 3.5 6.1 0.00 0.10 0.00 51 1009.8
20260506035549 67 206 2.6 7.0 0.00 0.10 0.10 50 1009.8
20260506035048 67 256 3.5 7.0 0.00 0.10 0.10 51 1009.8
20260506034558 67 193 1.7 6.1 0.00 0.10 0.10 50 1009.8
20260506034051 67 213 2.6 6.1 0.00 0.10 0.10 49 1009.8
20260506033551 67 214 2.6 6.1 0.00 0.10 0.10 50 1009.7
20260506033055 67 225 1.7 6.1 0.00 0.10 0.10 50 1009.7
20260506032552 67 195 2.6 7.8 0.00 0.10 0.10 50 1009.7
20260506032049 67 219 3.5 9.6 0.00 0.10 0.10 52 1009.8
20260506031551 68 194 4.3 12.2 0.00 0.10 0.10 49 1009.7
20260506031052 68 190 5.2 12.2 0.00 0.10 0.10 49 1009.7
20260506030549 68 213 7.8 13.0 0.00 0.10 0.10 48 1009.6
20260506030055 68 204 7.0 13.0 0.00 0.10 0.10 48 1009.7
20260506025553 68 204 7.0 10.4 0.00 0.10 0.10 48 1009.7
20260506025051 68 181 6.1 10.4 0.00 0.10 0.10 49 1009.7
20260506024558 68 190 6.1 9.6 0.00 0.10 0.10 49 1009.8
20260506024049 68 184 5.2 9.6 0.00 0.10 0.10 49 1009.8
20260506023551 68 181 5.2 9.6 0.00 0.10 0.10 48 1009.7
20260506023056 68 194 5.2 10.4 0.00 0.10 0.10 49 1009.8
20260506022548 68 167 4.3 11.3 0.00 0.10 0.10 49 1009.7
20260506022049 68 161 3.5 12.2 0.00 0.10 0.10 48 1009.8
20260506021551 68 189 6.1 12.2 0.00 0.10 0.10 47 1009.8
20260506021052 67 199 3.5 7.0 0.00 0.10 0.10 51 1009.8
20260506020548 67 197 0.9 6.1 0.00 0.10 0.10 47 1009.7
20260506020121 68 0 0.0 6.1 0.00 0.10 0.10 47 1009.8
20260506015553 69 0 1.7 6.1 0.00 0.10 0.10 45 1009.8
20260506015052 69 200 1.7 6.1 0.00 0.10 0.10 44 1009.7
20260506014552 70 200 2.6 5.2 0.00 0.10 0.10 44 1009.6
20260506014051 71 190 1.7 7.0 0.00 0.10 0.10 46 1009.6
20260506013548 71 201 3.5 7.8 0.00 0.10 0.10 42 1009.6
20260506013050 71 229 2.6 7.8 0.00 0.10 0.10 42 1009.5
20260506012551 71 208 3.5 8.7 0.00 0.10 0.10 42 1009.4
20260506012048 71 212 2.6 8.7 0.00 0.10 0.10 43 1009.3
20260506011553 71 199 4.3 9.6 0.00 0.10 0.10 43 1009.3
20260506011048 71 202 5.2 9.6 0.00 0.10 0.10 43 1009.2
20260506010548 72 189 5.2 11.3 0.00 0.10 0.10 42 1009.1
20260506010058 72 199 6.1 11.3 0.00 0.10 0.10 41 1009.1
20260506005548 72 194 6.1 11.3 0.00 0.10 0.10 41 1009.0
20260506005049 72 179 6.1 12.2 0.00 0.10 0.10 41 1008.8
20260506004600 72 201 6.1 12.2 0.00 0.10 0.10 42 1008.8
20260506004049 72 188 7.0 12.2 0.00 0.10 0.10 41 1008.9
20260506003549 72 155 6.1 10.4 0.00 0.10 0.10 42 1008.8
20260506003058 72 165 6.1 12.2 0.00 0.10 0.10 43 1008.8
20260506002548 72 169 7.0 13.9 0.00 0.10 0.10 43 1008.8
20260506002051 73 173 7.0 13.9 0.00 0.10 0.10 40 1008.8
20260506001608 73 181 5.2 9.6 0.00 0.10 0.10 40 1008.8
20260506001052 72 193 4.3 10.4 0.00 0.10 0.10 41 1008.7
20260506000550 73 179 5.2 10.4 0.00 0.10 0.10 40 1008.6
20260506000125 73 214 7.0 10.4 0.00 0.10 0.10 39 1008.6
20260505235548 74 187 5.2 13.0 0.00 0.10 0.10 39 1008.5
20260505235051 74 201 7.0 15.6 0.00 0.10 0.10 39 1008.4
20260505234617 74 178 8.7 15.6 0.00 0.10 0.10 39 1008.5
20260505234052 74 177 5.2 12.2 0.00 0.10 0.10 39 1008.5
20260505233549 75 169 7.0 17.4 0.00 0.10 0.10 38 1008.3
20260505233108 75 219 7.8 17.4 0.00 0.10 0.10 39 1008.5
20260505232550 75 222 7.8 13.9 0.00 0.10 0.10 38 1008.2
20260505232051 75 202 7.8 17.4 0.00 0.10 0.10 39 1008.3
20260505231607 75 183 7.0 17.4 0.00 0.10 0.10 38 1008.2
20260505231049 75 211 7.0 20.0 0.00 0.10 0.10 37 1008.3
20260505230549 76 175 9.6 20.0 0.00 0.10 0.10 38 1008.3
20260505230100 76 192 8.7 15.6 0.00 0.10 0.10 38 1008.1
20260505225549 76 136 8.7 17.4 0.00 0.10 0.10 37 1008.2
20260505225048 76 194 9.6 17.4 0.00 0.10 0.10 37 1008.2
20260505224614 76 172 9.6 16.5 0.00 0.10 0.10 37 1008.2
20260505224054 76 188 7.8 15.6 0.00 0.10 0.10 37 1008.1
20260505223551 77 179 6.1 15.6 0.00 0.10 0.10 36 1007.9
20260505223104 77 204 7.8 13.0 0.00 0.10 0.10 35 1007.9
20260505222548 77 188 6.1 17.4 0.00 0.10 0.10 33 1007.9